Torna al catalogo

INTELSAT 6B

PAS 6B

AttivoComunicazioniGEO
NORAD 25585·PAYLOAD·🇺🇸 United States

Lanciato Dec 22, 1998 da Guiana Space Centre

Loading…

TLE

AggiornatoSource: Space-Track

Epoca: Sep 14, 2026, 09:06 UTC

1 25585U 98075A   26257.37967850 -.00000066  00000-0  00000-0 0  9994
2 25585  12.4734  30.0810 0019696 174.3585  18.5400  0.99150991100871

Traccia INTELSAT 6B in tempo reale con AllMySat

Download on the App Store